SCP
0 0 0 0 0 0 0 0 0 0 0 0 0 0 0 0 0 0 0 0 0 0 0 0 0 0 0 0 0 0 0 0 0 1 1 1 1 1
0 0 0 0 0 0 0 0 0 0 0 0 0 0 0 0 0 0 0 0 0 0 0 0 0 0 0 0 0 0 0 0 0 0 0 1 1 1
0 0 0 0 0 0 0 0 0 0 0 0 0 0 0 0 0 0 0 0 0 0 0 0 0 0 0 0 0 0 0 0 0 0 0 0 0 0
0 0 0 0 0 0 0 0 0 0 0 0 0 0 0 0 0 0 0 0 0 0 0 0 0 0 0 0 0 0 0 0 0 0 0 0 0 0
0 0 0 0 0 0 0 0 0 0 0 0 0 0 0 0 0 0 0 0 0 0 0 0 0 0 0 0 0 0 0 0 0 0 0 0 0 0
0 0 0 0 0 0 0 0 0 0 0 0 0 0 0 0 0 0 0 0 0 0 0 0 0 0 0 0 0 0 0 0 0 0 0 0 0 0
0 0 0 0 0 0 0 0 0 0 0 0 0 0 0 0 0 0 0 0 0 0 0 0 0 0 0 0 0 0 0 0 0 0 0 0 0 0
0 0 0 0 0 0 0 0 0 0 0 0 0 0 0 0 0 0 0 0 0 0 0 0 0 0 0 0 0 0 0 0 0 0 0 0 0 0
0 0 0 0 0 0 0 0 0 0 0 0 0 0 0 0 0 0 0 0 0 0 0 0 0 0 0 0 0 0 0 0 0 0 0 0 0 0
0 0 0 0 0 0 0 0 0 0 0 0 0 0 0 0 0 0 0 0 0 0 0 0 0 0 0 0 0 0 0 0 0 0 0 0 0 0
0 0 0 0 0 0 0 0 0 0 0 0 0 0 0 0 0 0 0 0 0 0 0 0 0 0 0 0 0 0 0 0 0 0 0 0 0 0
0 0 0 0 0 0 0 0 0 0 0 0 0 0 0 0 0 0 0 0 0 0 0 0 0 0 0 0 0 0 0 0 0 0 0 0 0 0
0 0 0 0 0 0 0 0 0 0 0 0 0 0 0 0 0 0 0 0 0 0 0 0 0 0 0 0 0 0 0 0 0 0 0 0 0 0
0 0 0 0 0 0 0 0 0 0 0 0 0 0 0 0 0 0 0 0 0 0 0 0 0 0 0 0 0 0 0 0 0 0 0 0 0 0
0 0 0 0 0 0 0 0 0 0 0 0 0 0 0 0 0 0 0 0 0 0 0 0 0 0 0 0 0 0 0 0 0 0 0 0 0 0
0 0 0 0 0 0 0 0 0 0 0 0 0 0 0 0 0 0 0 0 0 0 0 0 0 0 0 0 0 0 0 0 0 0 0 0 0 0
0 0 0 0 0 0 0 0 0 0 0 0 0 0 0 0 0 0 0 0 0 0 0 0 0 0 0 0 0 0 0 0 0 0 0 0 0 0
0 0 0 0 0 0 0 0 0 0 0 0 0 0 0 0 0 0 0 0 0 0 0 0 0 0 0 0 0 0 0 0 0 0 0 0 0 0
0 0 0 0 0 0 0 0 0 0 0 0 0 0 0 0 0 0 0 0 0 0 0 0 0 0 0 0 0 0 0 0 0 0 0 0 0 0
0 0 0 0 0 0 0 0 0 0 0 0 0 0 0 0 0 0 0 0 0 0 0 0 0 0 0 0 0 0 0 0 0 0 0 0 0 0
0 0 0 0 0 0 0 0 0 0 0 0 0 0 0 0 0 0 0 0 0 0 0 0 0 0 0 0 0 0 0 0 0 0 0 0 0 0
0 0 0 0 0 0 0 0 0 0 0 0 0 0 0 0 0 0 0 0 0 0 0 0 0 0 0 0 0 0 0 0 0 0 0 0 0 0
0 0 0 0 0 0 0 0 0 0 0 0 0 0 0 0 0 0 0 0 0 0 0 0 0 0 0 0 0 0 0 0 0 0 0 0 0 0
Wind_Speed
1 1 1 1 1 1 1 2 3 1 1 3 2 3 2 2 3 2 2 4 5 5 5 5 6 6 7 7 8 8 8 8 8 8 8 8 8 8
1 2 1 1 1 1 1 1 2 3 1 2 2 2 3 3 4 3 2 5 5 5 4 4 5 5 6 6 7 7 7 7 8 8 8 7 7 7
1 2 1 1 1 1 1 1 1 2 2 1 1 2 2 3 4 3 2 2 3 5 5 4 4 5 5 5 5 6 6 7 7 7 7 7 7 7
1 1 1 1 1 1 1 1 1 1 2 1 1 2 2 2 3 3 3 3 2 5 6 5 5 5 5 5 5 5 5 6 6 7 7 7 7 7
1 1 1 1 1 1 1 1 1 1 1 1 1 1 2 2 2 3 3 3 3 4 6 6 6 6 7 6 6 5 6 6 6 7 7 7 8 8
1 1 1 1 1 1 1 1 1 2 2 1 1 1 2 2 2 2 3 3 3 4 5 5 6 7 7 7 7 6 6 6 7 7 7 8 8 8
1 0 0 1 2 2 2 2 2 2 2 1 1 1 2 2 2 1 2 2 2 2 3 3 3 3 4 6 6 7 6 7 7 7 7 8 8 9
1 0 1 1 2 3 4 4 4 3 2 2 1 0 1 1 1 1 1 2 2 2 2 2 2 3 3 3 6 7 7 8 8 8 8 8 9 9
1 1 1 2 2 2 3 4 3 3 4 3 2 1 1 2 1 1 1 0 1 2 2 2 2 2 3 4 7 7 8 8 9 9 9 9 9 10
1 1 1 0 2 3 3 3 3 2 1 2 2 0 0 0 1 1 1 1 1 2 2 1 2 2 3 3 6 8 9 9 10 10 10 10 10 10
1 1 1 1 2 4 4 3 2 2 3 4 4 4 5 5 4 2 2 1 2 2 2 1 2 3 2 2 4 8 9 10 10 11 11 11 11 9
1 1 1 2 2 3 3 3 2 0 2 3 4 5 4 4 5 2 1 1 1 2 2 2 2 2 3 2 3 4 5 8 9 10 11 11 11 6
2 0 1 3 3 3 4 2 2 2 2 2 2 3 3 3 3 2 1 1 0 1 2 1 1 1 2 3 3 3 3 4 5 6 9 11 11 8
2 1 1 3 3 3 3 3 3 3 2 2 2 2 2 2 2 2 2 1 0 1 2 1 1 1 1 2 3 3 3 4 4 5 5 8 8 10
2 4 4 3 3 3 3 4 3 3 2 2 1 1 1 1 2 2 3 2 3 3 3 2 1 1 1 2 3 3 4 4 4 5 5 5 5 5
2 3 5 5 4 4 4 3 2 2 2 1 0 0 1 1 2 2 1 2 2 3 4 4 2 1 1 2 2 3 3 4 5 6 5 5 5 5
4 3 2 2 2 2 1 1 1 1 1 1 1 1 1 1 1 1 1 1 1 2 4 3 3 2 2 2 2 3 3 4 5 6 5 6 6 6
5 3 2 1 1 1 1 0 0 0 0 0 0 0 0 0 1 1 1 1 1 2 3 3 3 3 3 2 2 2 3 4 5 6 5 5 7 6
4 2 2 2 1 1 1 1 1 1 1 1 1 1 1 1 1 1 1 1 2 2 3 3 3 3 4 5 4 2 4 5 5 5 5 5 7 8
2 2 2 2 2 2 1 1 1 1 1 1 1 1 1 0 1 1 1 2 2 2 3 3 2 3 3 4 4 5 5 5 5 6 6 6 6 8
3 2 2 2 2 2 2 2 1 1 1 1 1 1 1 1 1 1 1 2 2 2 3 4 4 5 3 2 4 4 4 6 7 6 6 6 7 6
3 3 3 2 2 2 2 2 2 2 2 2 2 1 1 1 1 1 1 2 2 2 3 3 4 3 2 3 5 6 6 6 7 9 8 7 6 6
3 3 3 2 2 2 2 2 2 2 2 2 2 2 1 1 1 1 1 2 2 3 3 3 3 3 3 4 5 6 8 8 6 6 6 9 11 12
Wind_Direction
90 96 93 66 105 131 140 147 143 128 319 311 319 326 328 324 349 349 335 4 9 11 16 22 25 26 23 19 18 16 16 14 12 10 6 3 2 1
91 86 69 53 73 91 121 123 134 148 186 282 283 302 324 346 5 357 349 3 8 10 12 18 21 22 21 18 15 13 11 8 5 2 358 355 353 350
68 89 60 63 71 73 97 100 104 125 156 284 297 310 340 351 349 352 358 0 352 7 12 13 17 18 15 13 12 10 9 5 360 354 349 348 346 345
95 95 58 82 72 70 92 102 114 136 150 205 318 331 335 338 343 352 1 6 354 7 17 18 19 19 16 11 8 8 8 5 0 355 351 348 343 339
157 147 158 115 102 100 103 103 98 98 118 142 310 325 320 341 352 350 358 354 360 12 20 24 26 29 27 23 21 22 22 18 11 6 359 352 346 341
123 148 155 156 178 160 135 135 118 98 94 99 38 344 331 332 1 348 343 347 353 4 7 14 22 25 21 21 20 19 19 18 14 10 3 357 350 342
76 74 149 149 162 157 145 152 135 118 107 95 51 13 347 347 330 312 321 321 336 1 352 359 4 5 3 6 11 14 18 14 7 2 357 354 348 342
132 17 32 61 90 106 111 119 134 139 147 135 141 215 285 275 289 321 337 356 329 346 355 336 6 351 341 351 4 15 17 12 7 1 357 354 348 343
143 95 60 63 76 84 82 81 83 100 136 150 151 217 247 255 250 327 317 270 269 320 352 319 343 333 331 355 8 16 14 11 7 3 358 353 350 346
144 151 135 67 89 112 100 81 68 51 81 115 145 191 39 161 190 236 236 282 303 348 15 318 324 320 334 341 12 21 19 16 12 8 5 0 355 351
101 109 143 146 121 119 111 102 65 23 46 73 76 64 51 51 58 55 31 29 331 327 8 339 316 318 321 332 359 11 14 13 9 7 4 1 356 351
77 56 123 145 132 129 131 133 124 20 51 50 42 33 31 31 47 62 69 46 327 319 342 344 325 342 323 323 344 353 0 360 360 1 359 357 355 351
128 103 80 122 121 121 130 140 155 134 96 79 52 31 25 23 19 20 36 89 122 282 317 339 323 334 298 306 324 341 352 347 348 347 350 349 350 352
153 164 130 115 108 104 106 103 109 100 89 77 57 32 17 5 358 359 3 19 21 264 298 303 271 284 294 301 305 321 329 339 342 338 337 339 339 339
132 127 118 108 94 77 69 83 93 91 95 85 64 16 353 343 358 5 9 16 11 2 7 359 326 299 268 270 293 306 315 322 333 331 331 333 331 331
111 101 98 88 79 64 53 53 69 100 118 126 131 354 8 17 18 11 4 359 6 348 346 348 340 320 298 294 288 304 316 319 329 329 326 322 322 323
121 91 78 74 70 58 52 50 63 77 93 82 95 53 28 19 360 1 9 15 8 336 337 341 347 343 311 288 303 306 314 316 317 324 327 325 318 319
123 115 125 134 152 169 162 104 61 72 270 129 144 209 274 310 338 360 12 7 332 320 324 328 337 342 342 333 257 293 315 314 316 321 318 316 315 318
129 143 159 177 194 202 198 191 217 237 206 180 202 227 244 278 329 339 344 340 327 320 325 330 341 346 335 325 318 304 308 312 316 319 316 310 306 310
159 173 191 198 201 207 210 214 223 219 188 194 212 237 231 252 314 323 319 316 316 323 330 333 331 323 306 301 301 306 303 302 311 313 312 305 294 293
193 201 204 200 203 209 212 211 206 203 202 198 210 228 226 225 278 299 300 317 321 320 320 315 306 314 306 307 307 307 304 304 306 308 311 312 314 314
200 205 208 203 202 204 206 203 202 205 205 206 214 221 218 210 240 271 282 297 302 302 304 307 317 326 324 312 307 309 312 316 317 318 315 312 314 315
208 207 204 203 205 202 200 203 207 216 215 214 217 215 204 214 236 248 268 282 297 307 313 316 322 316 307 300 301 306 312 318 323 323 317 322 321 315